Regional Weather Roundup
Issued by NWS

Home | Current Version | Previous Version | Text Only | Print | Product List | Glossary On
Versions: 1 2 3 4 5 6 7 8 9 10 11 12 13 14 15 16 17 18 19 20 21 22 23 24 25 26 27 28 29 30 31 32 33 34 35 36 37 38 39 40 41 42 43 44 45 46 47 48 49 50
000
ASUS45 KSLC 172010
RWRUT

UTAH REGIONAL WEATHER ROUNDUP
NATIONAL WEATHER SERVICE SALT LAKE CITY UT
100 PM MST FRI NOV 17 2017

UTZ001>011-023>025-172100-

NORTHERN UTAH

CITY           SKY/WX    TMP DP  RH WIND       PRES   REMARKS
BRIGHAM CITY   CLOUDY    39  31  73 N6        29.91R WCI  35
HILL AFB       FLURRIES  33  31  93 N7        29.89S WCI  27
LOGAN          CLOUDY    39  34  82 SW6       29.89R WCI  35
OGDEN          FLURRIES  37  33  85 N10       29.89R WCI  30
SALT LAKE CITY LGT RAIN  39  36  89 N25G37    29.90R WCI  28
TOOELE VALLEY  LGT RAIN  36  36 100 NW9       29.94R WCI  29
WENDOVER       CLOUDY    42  28  57 NW24G32   29.96R
HEBER CITY     MIX PCPN  36  32  87 SW3       29.78S
WEST JORDAN    CLOUDY    33  33 100 NW25      29.90R WCI  20

$$

UTZ011>015-024>027-172100-

CENTRAL/NORTHEAST UTAH

CITY           SKY/WX    TMP DP  RH WIND       PRES   REMARKS
PROVO AIRPORT  RAIN      41  39  93 E6        29.82F
MOAB/CANYONLAN CLOUDY    68  34  28 SW28G40   29.68F
DELTA          PTSUNNY   46  41  81 NW18G30   29.82R
PRICE          MOSUNNY   58  25  28 SW24G43   29.69F
RICHFIELD      MOSUNNY   61  28  29 SW25G38   29.81F
ROOSEVELT      LGT RAIN  46  36  66 NW32G41   29.72R
VERNAL         LGT RAIN  51  40  65 NW17G28   29.64R

$$

UTZ013>016-019>022-027-172100-

SOUTHERN UTAH

CITY           SKY/WX    TMP DP  RH WIND       PRES   REMARKS
BRYCE CANYON   PTSUNNY   51  31  46 W22G35    29.95F
CEDAR CITY     MOSUNNY   60  34  37 SW26G38   29.87F
MILFORD        PTSUNNY   59  36  42 SW26G40   29.83F
ST GEORGE      CLOUDY    68  39  34 W10       29.87F
HANKSVILLE     MOSUNNY   70  32  24 SW18G32   29.75F
KANAB          CLOUDY    63  36  36 SW25      29.95F
BLANDING         N/A     60  32  35 SW24G37   29.95F

$$

REGIONAL REPORTS     COLORADO/ARIZONA

CITY           SKY/WX    TMP DP  RH WIND       PRES   REMARKS
CRAIG, CO      LGT RAIN  37  32  82 NW6       29.72F WCI  32
GRAND JUNCTION CLOUDY    66  32  28 SW25G36   29.71F
RIFLE, CO      CLOUDY    61  37  41 SW26G39   29.68F
MONTROSE, CO   LGT RAIN  59  33  37 SW16G26   29.81F
CORTEZ, CO     CLOUDY    58  33  39 SW18G39   29.93F
COLORADO CITY    N/A     64  37  36 SW22G31   29.96F
PAGE, AZ       MOSUNNY   69  35  28 SW15G25   29.85F
GRAND CANYON   CLOUDY    51  39  63 SW21G29   30.06F
KINGMAN, AZ    CLOUDY    67  39  35 SW22G31   29.99F
FLAGSTAFF, AZ  LGT RAIN  43  38  82 SW21      30.11F

$$

REGIONAL REPORTS    NEVADA/IDAHO/WYOMING

CITY           SKY/WX    TMP DP  RH WIND       PRES   REMARKS
LAS VEGAS, NV  PTSUNNY   75  41  29 SW23G37   29.85S
ELY, NY        CLOUDY    36  27  69 NW23G31   29.99R WCI  24
ELKO, NV       FLURRIES  34  30  85 S10       30.04R WCI  26
POCATELLO, ID  CLOUDY    37  31  78 W31G39    29.87R WCI  24
BURLEY, ID     CLOUDY    39  30  70 W20G33    29.94R WCI  29
FORT BRIDGER,  SNOW      34  34 100 W16G28    29.79R VSB 1/4 WCI  23
EVANSTON, WY   SNOW      29  28  96 NW25G31   29.80R VSB 1/4 WCI  14
ROCK SPRINGS,  MIX PCPN  31  29  92 W24G32    29.72S WCI  17

$$



USA.gov is the U.S. government's official web portal to all federal, state and local government web resources and services.